Weather History for Gainesville, FL

Change the Weather History Date:

Sunday, March 3, 2013

  Actual Average Record
Temperature  
Mean Temperature 40 °F 60 °F  
Max Temperature 51 °F 72 °F 89 °F (1951)
Min Temperature 28 °F 48 °F 22 °F (1980)
Degree Days  
Heating Degree Days 25 6  
Month to date heating degree days 56 18  
Since 1 July heating degree days 788 1052  
Cooling Degree Days 0 1  
Month to date cooling degree days 0 3  
Year to date cooling degree days 100 35  
Moisture  
Dew Point 26 °F    
Average Humidity 59    
Maximum Humidity 82    
Minimum Humidity 36    
Precipitation  
Precipitation 0.00 in 0.15 in 2.88 in (1978)
Month to date precipitation 0.00 0.44  
Year to date precipitation 1.97 6.95  
Snow  
Snow 0.00 in 0.00 in 0.00 in ()
Month to date snowfall 0.0 0.0  
Since 1 July snowfall 0.0 0.0  
Snow Depth 0.00 in    
Sea Level Pressure  
Sea Level Pressure 30.08 in    
Wind  
Wind Speed 7 mph (WNW)    
Max Wind Speed 18 mph    
Max Gust Speed 24 mph    
Visibility 10 miles    
Events      
T = Trace of Precipitation, MM = Missing Value Source: NWS Daily Summary

Daily Weather History Graph

Daily Weather History Graph

Search for Another Location

Airport:

Trip Planner

Search our weather history database for the weather conditions in past years. The results will help you decide how hot, cold, wet, or windy it might be!

Date:

Astronomy

Mar. 03, 2013 Rise Set
Actual Time 6:52 AM EST 6:29 PM EST
Civil Twilight 6:28 AM EST 6:53 PM EST
Nautical Twilight 6:00 AM EST 7:21 PM EST
Astronomical Twilight 5:33 AM EST 7:49 PM EST
Moon No Moon Rise 10:35 AM EST (3/3)
Length of Visible Light 12h 25m
Length of Day
11h 37m
Waning Gibbous, 64% of the Moon is Illuminated
Mar 3
Waning Gibbous
Mar 4
Last Quarter
Mar 11
New
Mar 19
First Quarter
Mar 27
Full

Hourly Weather History & Observations

Time (EST) Temp. Windchill Dew Point Humidity Pressure Visibility Wind Dir Wind Speed Gust Speed Precip Events Conditions
12:53 AM 36.0 °F 31.1 °F 26.1 °F 67% 30.04 in 10.0 mi NW 5.8 mph - N/A   Clear
1:53 AM 36.0 °F 32.1 °F 27.0 °F 70% 30.05 in 10.0 mi WNW 4.6 mph - N/A   Clear
2:53 AM 35.1 °F 30.1 °F 27.0 °F 72% 30.04 in 10.0 mi WNW 5.8 mph - N/A   Partly Cloudy
3:53 AM 34.0 °F 28.8 °F 27.0 °F 75% 30.04 in 10.0 mi WNW 5.8 mph - N/A   Clear
4:53 AM 33.1 °F 26.9 °F 27.0 °F 78% 30.04 in 10.0 mi WNW 6.9 mph - N/A   Overcast
5:53 AM 34.0 °F 29.8 °F 28.0 °F 79% 30.05 in 10.0 mi WNW 4.6 mph - N/A   Scattered Clouds
6:53 AM 33.1 °F 26.9 °F 28.0 °F 82% 30.07 in 10.0 mi West 6.9 mph - N/A   Clear
7:53 AM 37.0 °F 31.0 °F 28.9 °F 73% 30.08 in 10.0 mi WNW 8.1 mph - N/A   Clear
8:53 AM 42.1 °F 34.9 °F 28.9 °F 60% 30.10 in 10.0 mi NNW 13.8 mph 18.4 mph N/A   Clear
9:53 AM 44.1 °F 37.7 °F 27.0 °F 51% 30.10 in 10.0 mi WNW 12.7 mph - N/A   Scattered Clouds
10:53 AM 44.1 °F 38.6 °F 25.0 °F 47% 30.10 in 10.0 mi WNW 10.4 mph 18.4 mph N/A   Overcast
11:53 AM 46.0 °F 41.0 °F 24.1 °F 42% 30.09 in 10.0 mi WNW 10.4 mph 20.7 mph N/A   Overcast
12:53 PM 46.0 °F 41.9 °F 25.0 °F 44% 30.07 in 10.0 mi NW 8.1 mph 16.1 mph N/A   Overcast
1:53 PM 46.9 °F - 24.1 °F 41% 30.04 in 10.0 mi WNW 11.5 mph 19.6 mph N/A   Overcast
2:53 PM 48.0 °F - 23.0 °F 37% 30.04 in 10.0 mi WNW 12.7 mph 23.0 mph N/A   Overcast
3:53 PM 50.0 °F - 24.1 °F 36% 30.04 in 10.0 mi WNW 9.2 mph - N/A   Mostly Cloudy
4:53 PM 48.0 °F - 24.1 °F 39% 30.04 in 10.0 mi NW 12.7 mph - N/A   Clear
5:53 PM 46.0 °F 41.9 °F 24.1 °F 42% 30.06 in 10.0 mi WNW 8.1 mph 17.3 mph N/A   Clear
6:53 PM 42.1 °F 38.4 °F 24.1 °F 49% 30.09 in 10.0 mi WNW 5.8 mph - N/A   Clear
7:53 PM 37.0 °F - 26.1 °F 65% 30.11 in 10.0 mi Calm Calm - N/A   Clear
8:53 PM 37.0 °F 32.4 °F 26.1 °F 65% 30.14 in 10.0 mi WNW 5.8 mph - N/A   Clear
9:53 PM 36.0 °F - 26.1 °F 67% 30.16 in 10.0 mi Calm Calm - N/A   Clear
10:53 PM 32.0 °F - 26.1 °F 79% 30.17 in 10.0 mi Calm Calm - N/A   Clear
11:53 PM 28.9 °F 25.2 °F 24.1 °F 82% 30.17 in 10.0 mi West 3.5 mph - N/A   Clear